| time (UTC) | temp F | wind direction | speed knots | gust knots | rain 1hr in | rain 24hr in | rain mn in | humidity % | barometer mb |
| 20260505210522 | 78 | 116 | 4.3 | 17.4 | 0.00 | 0.01 | 0.01 | 46 | 1007.7 |
| 20260505210022 | 78 | 244 | 5.2 | 13.9 | 0.00 | 0.01 | 0.01 | 45 | 1007.7 |
| 20260505205522 | 78 | 217 | 5.2 | 15.6 | 0.00 | 0.01 | 0.01 | 44 | 1007.6 |
| 20260505205022 | 79 | 238 | 6.1 | 15.6 | 0.00 | 0.01 | 0.01 | 44 | 1007.8 |
| 20260505204521 | 79 | 203 | 5.2 | 12.2 | 0.00 | 0.01 | 0.01 | 44 | 1007.7 |
| 20260505204024 | 79 | 225 | 0.9 | 10.4 | 0.00 | 0.01 | 0.01 | 45 | 1007.8 |
| 20260505203520 | 80 | 229 | 4.3 | 11.3 | 0.00 | 0.01 | 0.01 | 43 | 1007.9 |
| 20260505203025 | 80 | 153 | 4.3 | 15.6 | 0.00 | 0.01 | 0.01 | 42 | 1007.9 |
| 20260505202520 | 80 | 209 | 6.1 | 15.6 | 0.00 | 0.01 | 0.01 | 42 | 1007.9 |
| 20260505202020 | 80 | 233 | 3.5 | 12.2 | 0.00 | 0.01 | 0.01 | 43 | 1007.8 |
| 20260505201519 | 81 | 254 | 5.2 | 12.2 | 0.00 | 0.01 | 0.01 | 44 | 1007.9 |
| 20260505201019 | 80 | 242 | 4.3 | 13.0 | 0.00 | 0.01 | 0.01 | 45 | 1007.9 |
| 20260505200521 | 81 | 173 | 4.3 | 8.7 | 0.00 | 0.01 | 0.01 | 45 | 1007.9 |
| 20260505200030 | 81 | 259 | 3.5 | 8.7 | 0.00 | 0.01 | 0.01 | 44 | 1008.0 |
| 20260505195518 | 80 | 259 | 3.5 | 15.6 | 0.00 | 0.01 | 0.01 | 45 | 1008.0 |
| 20260505195018 | 80 | 223 | 5.2 | 15.6 | 0.00 | 0.01 | 0.01 | 45 | 1007.8 |
| 20260505194518 | 80 | 317 | 6.1 | 16.5 | 0.00 | 0.01 | 0.01 | 44 | 1007.9 |
| 20260505194017 | 81 | 212 | 5.2 | 16.5 | 0.00 | 0.01 | 0.01 | 45 | 1007.9 |
| 20260505193517 | 81 | 210 | 1.7 | 11.3 | 0.00 | 0.01 | 0.01 | 48 | 1008.1 |
| 20260505193016 | 80 | 222 | 4.3 | 9.6 | 0.00 | 0.01 | 0.01 | 47 | 1008.1 |
| 20260505192519 | 80 | 139 | 3.5 | 9.6 | 0.00 | 0.01 | 0.01 | 46 | 1008.0 |
| 20260505192016 | 80 | 175 | 2.6 | 9.6 | 0.00 | 0.01 | 0.01 | 47 | 1008.1 |
| 20260505191515 | 80 | 159 | 4.3 | 10.4 | 0.00 | 0.01 | 0.01 | 47 | 1008.2 |
| 20260505191014 | 80 | 248 | 4.3 | 15.6 | 0.00 | 0.01 | 0.01 | 47 | 1008.4 |
| 20260505190517 | 80 | 240 | 6.1 | 16.5 | 0.00 | 0.01 | 0.01 | 46 | 1008.4 |
| 20260505190014 | 80 | 69 | 7.0 | 17.4 | 0.00 | 0.01 | 0.01 | 43 | 1008.5 |
| 20260505185518 | 80 | 261 | 3.5 | 18.2 | 0.00 | 0.01 | 0.01 | 44 | 1008.5 |
| 20260505185013 | 80 | 200 | 6.1 | 15.6 | 0.00 | 0.01 | 0.01 | 45 | 1008.5 |
| 20260505184518 | 81 | 249 | 6.1 | 10.4 | 0.00 | 0.01 | 0.01 | 47 | 1008.5 |
| 20260505184012 | 81 | 229 | 5.2 | 10.4 | 0.00 | 0.01 | 0.01 | 47 | 1008.6 |
| 20260505183510 | 81 | 186 | 4.3 | 15.6 | 0.00 | 0.01 | 0.01 | 48 | 1008.6 |
| 20260505183010 | 80 | 236 | 3.5 | 13.0 | 0.00 | 0.01 | 0.01 | 52 | 1008.7 |
| 20260505182510 | 80 | 218 | 3.5 | 13.0 | 0.00 | 0.01 | 0.01 | 48 | 1008.8 |
| 20260505182009 | 80 | 212 | 5.2 | 14.8 | 0.00 | 0.01 | 0.01 | 47 | 1008.9 |
| 20260505181509 | 80 | 195 | 7.8 | 14.8 | 0.00 | 0.01 | 0.01 | 45 | 1009.0 |
| 20260505181009 | 80 | 296 | 4.3 | 13.9 | 0.00 | 0.01 | 0.01 | 47 | 1009.1 |
| 20260505180518 | 80 | 218 | 4.3 | 12.2 | 0.00 | 0.01 | 0.01 | 46 | 1009.1 |
| 20260505180008 | 80 | 271 | 5.2 | 13.0 | 0.00 | 0.01 | 0.01 | 46 | 1009.0 |
| 20260505175508 | 80 | 202 | 4.3 | 15.6 | 0.00 | 0.01 | 0.01 | 46 | 1009.1 |
| 20260505175109 | 80 | 279 | 7.0 | 15.6 | 0.00 | 0.01 | 0.01 | 46 | 1009.1 |
| 20260505174511 | 80 | 321 | 6.1 | 13.0 | 0.00 | 0.01 | 0.01 | 48 | 1009.1 |
| 20260505174005 | 80 | 157 | 2.6 | 13.0 | 0.00 | 0.01 | 0.01 | 51 | 1009.2 |
| 20260505173509 | 79 | 190 | 5.2 | 13.0 | 0.00 | 0.01 | 0.01 | 49 | 1009.3 |
| 20260505173012 | 80 | 203 | 4.3 | 13.9 | 0.00 | 0.01 | 0.01 | 50 | 1009.3 |
| 20260505172503 | 79 | 103 | 2.6 | 13.9 | 0.00 | 0.01 | 0.01 | 52 | 1009.4 |
| 20260505172002 | 79 | 323 | 1.7 | 9.6 | 0.00 | 0.01 | 0.01 | 54 | 1009.4 |
| 20260505171502 | 78 | 214 | 3.5 | 14.8 | 0.00 | 0.01 | 0.01 | 54 | 1009.5 |
| 20260505171002 | 78 | 163 | 5.2 | 14.8 | 0.00 | 0.01 | 0.01 | 53 | 1009.6 |
| 20260505170501 | 78 | 259 | 4.3 | 13.0 | 0.00 | 0.01 | 0.01 | 54 | 1009.6 |
| 20260505170000 | 79 | 203 | 4.3 | 11.3 | 0.00 | 0.01 | 0.01 | 54 | 1009.6 |
| 20260505165601 | 79 | 238 | 3.5 | 6.1 | 0.00 | 0.01 | 0.01 | 55 | 1009.8 |
| 20260505165058 | 78 | 123 | 2.6 | 9.6 | 0.00 | 0.01 | 0.01 | 56 | 1009.9 |
| 20260505164603 | 78 | 234 | 3.5 | 9.6 | 0.00 | 0.01 | 0.01 | 55 | 1009.9 |
| 20260505164057 | 78 | 269 | 4.3 | 9.6 | 0.00 | 0.01 | 0.01 | 56 | 1009.9 |
| 20260505163556 | 78 | 26 | 4.3 | 13.0 | 0.00 | 0.01 | 0.01 | 57 | 1010.0 |
| 20260505163101 | 78 | 64 | 4.3 | 13.0 | 0.00 | 0.01 | 0.01 | 55 | 1010.1 |
| 20260505162559 | 78 | 234 | 2.6 | 10.4 | 0.00 | 0.01 | 0.01 | 58 | 1010.0 |
| 20260505162054 | 77 | 146 | 1.7 | 7.0 | 0.00 | 0.01 | 0.01 | 58 | 1010.1 |
| 20260505161554 | 77 | 141 | 1.7 | 5.2 | 0.00 | 0.01 | 0.01 | 57 | 1010.2 |
| 20260505161053 | 77 | 67 | 1.7 | 6.1 | 0.00 | 0.01 | 0.01 | 58 | 1010.3 |
| 20260505160555 | 77 | 298 | 0.9 | 4.3 | 0.00 | 0.01 | 0.01 | 61 | 1010.3 |
| 20260505153055 | 74 | 276 | 1.7 | 8.7 | 0.00 | 0.01 | 0.01 | 64 | 1010.7 |
| 20260505152542 | 73 | 295 | 1.7 | 5.2 | 0.00 | 0.01 | 0.01 | 64 | 1010.7 |
| 20260505152042 | 73 | 153 | 0.9 | 6.1 | 0.00 | 0.01 | 0.01 | 65 | 1010.7 |
| 20260505151545 | 72 | 248 | 1.7 | 6.1 | 0.00 | 0.01 | 0.01 | 64 | 1010.9 |
| 20260505151037 | 72 | 224 | 0.9 | 7.0 | 0.00 | 0.01 | 0.01 | 67 | 1010.8 |
| 20260505150538 | 71 | 194 | 0.9 | 7.0 | 0.00 | 0.01 | 0.01 | 67 | 1010.9 |
| 20260505140524 | 66 | 248 | 1.7 | 6.1 | 0.00 | 0.01 | 0.01 | 74 | 1011.5 |
| 20260505125010 | 61 | 224 | 1.7 | 4.3 | 0.00 | 0.01 | 0.01 | 81 | 1011.4 |
| 20260505124507 | 61 | 182 | 1.7 | 5.2 | 0.00 | 0.01 | 0.01 | 83 | 1011.3 |
| 20260505124010 | 61 | 267 | 0.9 | 6.1 | 0.00 | 0.01 | 0.01 | 82 | 1011.4 |
| 20260505123505 | 60 | 135 | 0.9 | 4.3 | 0.00 | 0.01 | 0.01 | 82 | 1011.4 |
| 20260505123005 | 60 | 103 | 0.9 | 7.0 | 0.00 | 0.01 | 0.01 | 82 | 1011.4 |
| 20260505122504 | 60 | 266 | 1.7 | 7.0 | 0.00 | 0.01 | 0.01 | 82 | 1011.3 |
| 20260505122004 | 60 | 148 | 0.9 | 4.3 | 0.00 | 0.01 | 0.01 | 82 | 1011.3 |
| 20260505121501 | 60 | 250 | 1.7 | 4.3 | 0.00 | 0.01 | 0.01 | 81 | 1011.3 |
| 20260505121100 | 60 | 254 | 0.9 | 4.3 | 0.00 | 0.01 | 0.01 | 82 | 1011.0 |
| 20260505120559 | 59 | 242 | 1.7 | 3.5 | 0.00 | 0.01 | 0.01 | 81 | 1011.0 |
| 20260505120059 | 59 | 244 | 0.9 | 2.6 | 0.00 | 0.01 | 0.01 | 83 | 1011.1 |
| 20260505115600 | 59 | 243 | 0.9 | 4.3 | 0.00 | 0.01 | 0.01 | 84 | 1011.0 |
| 20260505115057 | 58 | 233 | 0.9 | 3.5 | 0.00 | 0.01 | 0.01 | 84 | 1011.1 |
| 20260505114559 | 58 | 233 | 0.0 | 3.5 | 0.00 | 0.01 | 0.01 | 85 | 1011.1 |
| 20260505114059 | 57 | 226 | 0.9 | 3.5 | 0.00 | 0.01 | 0.01 | 86 | 1011.2 |
| 20260505113558 | 56 | 221 | 0.9 | 3.5 | 0.00 | 0.01 | 0.01 | 87 | 1011.2 |
| 20260505113101 | 56 | 207 | 0.9 | 5.2 | 0.00 | 0.01 | 0.01 | 89 | 1011.2 |
| 20260505112555 | 55 | 219 | 0.9 | 5.2 | 0.00 | 0.01 | 0.01 | 89 | 1011.2 |
| 20260505112055 | 55 | 203 | 0.0 | 4.3 | 0.00 | 0.01 | 0.01 | 90 | 1011.3 |
| 20260505111558 | 55 | 179 | 0.9 | 4.3 | 0.00 | 0.01 | 0.01 | 91 | 1011.2 |
| 20260505111055 | 54 | 173 | 0.9 | 2.6 | 0.00 | 0.01 | 0.01 | 91 | 1011.3 |
| 20260505110554 | 54 | 130 | 0.9 | 1.7 | 0.00 | 0.01 | 0.01 | 92 | 1011.1 |
| 20260505102052 | 53 | 168 | 0.0 | 2.6 | 0.01 | 0.01 | 0.01 | 94 | 1010.9 |
| 20260505101554 | 53 | 136 | 0.0 | 3.5 | 0.01 | 0.01 | 0.01 | 94 | 1010.9 |
| 20260505101051 | 53 | 136 | 1.7 | 3.5 | 0.01 | 0.01 | 0.01 | 92 | 1010.6 |
| 20260505100550 | 54 | 136 | 0.9 | 2.6 | 0.01 | 0.01 | 0.01 | 91 | 1010.9 |
| 20260505100053 | 54 | 138 | 0.0 | 2.6 | 0.01 | 0.01 | 0.01 | 91 | 1011.1 |
| 20260505095550 | 55 | 138 | 0.0 | 1.7 | 0.01 | 0.01 | 0.01 | 90 | 1011.0 |
| 20260505095049 | 55 | 138 | 0.0 | 3.5 | 0.01 | 0.01 | 0.01 | 89 | 1010.8 |
| 20260505094546 | 55 | 138 | 0.9 | 4.3 | 0.01 | 0.01 | 0.01 | 87 | 1010.8 |
| 20260505094045 | 56 | 134 | 0.9 | 4.3 | 0.01 | 0.01 | 0.01 | 85 | 1010.8 |
| 20260505093543 | 56 | 243 | 0.0 | 2.6 | 0.00 | 0.00 | 0.00 | 82 | 1011.2 |
| 20260505093043 | 56 | 243 | 0.9 | 2.6 | 0.00 | 0.00 | 0.00 | 81 | 1011.0 |
| 20260505092542 | 56 | 243 | 0.0 | 3.5 | 0.00 | 0.00 | 0.00 | 81 | 1010.9 |
| 20260505092040 | 56 | 243 | 0.9 | 3.5 | 0.00 | 0.00 | 0.00 | 80 | 1010.9 |
| 20260505091552 | 56 | 243 | 0.9 | 3.5 | 0.00 | 0.00 | 0.00 | 80 | 1010.7 |
| 20260505091043 | 56 | 242 | 1.7 | 3.5 | 0.00 | 0.00 | 0.00 | 79 | 1010.6 |
| 20260505090542 | 57 | 242 | 0.0 | 2.6 | 0.00 | 0.00 | 0.00 | 79 | 1010.5 |
| 20260505090052 | 57 | 242 | 0.0 | 3.5 | 0.00 | 0.00 | 0.00 | 79 | 1010.6 |
| 20260505085539 | 57 | 241 | 1.7 | 3.5 | 0.00 | 0.00 | 0.00 | 78 | 1010.7 |
| 20260505085039 | 57 | 240 | 0.0 | 2.6 | 0.00 | 0.00 | 0.00 | 78 | 1010.4 |
| 20260505084539 | 57 | 240 | 0.9 | 3.5 | 0.00 | 0.00 | 0.00 | 78 | 1010.3 |
| 20260505084038 | 57 | 234 | 0.9 | 3.5 | 0.00 | 0.00 | 0.00 | 78 | 1010.3 |
| 20260505083538 | 57 | 234 | 0.0 | 4.3 | 0.00 | 0.00 | 0.00 | 78 | 1010.3 |
| 20260505083043 | 57 | 244 | 0.9 | 4.3 | 0.00 | 0.00 | 0.00 | 78 | 1010.3 |
| 20260505082539 | 57 | 240 | 0.9 | 4.3 | 0.00 | 0.00 | 0.00 | 78 | 1010.4 |
| 20260505082038 | 57 | 203 | 0.0 | 2.6 | 0.00 | 0.00 | 0.00 | 77 | 1010.4 |
| 20260505081552 | 57 | 209 | 0.0 | 2.6 | 0.00 | 0.00 | 0.00 | 77 | 1010.4 |
| 20260505081038 | 57 | 213 | 0.9 | 3.5 | 0.00 | 0.00 | 0.00 | 76 | 1010.4 |
| 20260505080541 | 57 | 218 | 0.9 | 3.5 | 0.00 | 0.00 | 0.00 | 76 | 1010.3 |
| 20260505080046 | 57 | 213 | 0.9 | 2.6 | 0.00 | 0.00 | 0.00 | 76 | 1010.3 |
| 20260505075537 | 57 | 218 | 0.9 | 5.2 | 0.00 | 0.00 | 0.00 | 75 | 1010.4 |
| 20260505075037 | 57 | 218 | 1.7 | 5.2 | 0.00 | 0.00 | 0.00 | 76 | 1010.4 |
| 20260505074550 | 57 | 196 | 1.7 | 3.5 | 0.00 | 0.00 | 0.00 | 75 | 1010.3 |
| 20260505074037 | 57 | 190 | 1.7 | 3.5 | 0.00 | 0.00 | 0.00 | 75 | 1010.3 |
| 20260505073536 | 57 | 190 | 1.7 | 3.5 | 0.00 | 0.00 | 0.00 | 76 | 1010.3 |
| 20260505073036 | 57 | 188 | 1.7 | 3.5 | 0.00 | 0.00 | 0.00 | 76 | 1010.3 |
| 20260505072535 | 57 | 188 | 0.9 | 2.6 | 0.00 | 0.00 | 0.00 | 76 | 1010.2 |
| 20260505072035 | 57 | 188 | 0.0 | 3.5 | 0.00 | 0.00 | 0.00 | 76 | 1010.3 |
| 20260505071535 | 57 | 188 | 1.7 | 3.5 | 0.00 | 0.00 | 0.00 | 75 | 1010.3 |
| 20260505071035 | 57 | 188 | 0.0 | 2.6 | 0.00 | 0.00 | 0.00 | 75 | 1010.3 |
| 20260505070535 | 57 | 188 | 0.0 | 2.6 | 0.00 | 0.00 | 0.00 | 75 | 1010.3 |
| 20260505070035 | 57 | 188 | 0.9 | 3.5 | 0.00 | 0.00 | 0.00 | 75 | 1010.4 |
| 20260505065535 | 57 | 188 | 0.9 | 3.5 | 0.00 | 0.00 | 0.00 | 75 | 1010.3 |
| 20260505065034 | 57 | 188 | 0.9 | 4.3 | 0.00 | 0.00 | 0.00 | 75 | 1010.4 |
| 20260505064536 | 57 | 188 | 0.9 | 4.3 | 0.00 | 0.00 | 0.00 | 75 | 1010.3 |
| 20260505064034 | 57 | 271 | 0.9 | 3.5 | 0.00 | 0.00 | 0.00 | 74 | 1010.4 |
| 20260505063533 | 57 | 257 | 0.9 | 7.8 | 0.00 | 0.00 | 0.00 | 74 | 1010.4 |
| 20260505063039 | 57 | 234 | 1.7 | 7.8 | 0.00 | 0.00 | 0.00 | 75 | 1010.4 |
| 20260505062534 | 57 | 253 | 1.7 | 5.2 | 0.00 | 0.00 | 0.00 | 75 | 1010.4 |
| 20260505062035 | 57 | 286 | 2.6 | 5.2 | 0.00 | 0.00 | 0.00 | 75 | 1010.4 |
| 20260505061542 | 57 | 271 | 1.7 | 7.0 | 0.00 | 0.00 | 0.00 | 74 | 1010.4 |
| 20260505061032 | 57 | 282 | 1.7 | 7.0 | 0.00 | 0.00 | 0.00 | 74 | 1010.4 |
| 20260505060538 | 57 | 244 | 0.9 | 6.1 | 0.00 | 0.00 | 0.00 | 74 | 1010.3 |
| 20260505060032 | 57 | 83 | 1.7 | 6.1 | 0.00 | 0.00 | 0.00 | 74 | 1010.4 |
| 20260505055534 | 57 | 304 | 0.9 | 4.3 | 0.00 | 0.00 | 0.00 | 74 | 1010.4 |
| 20260505055033 | 57 | 304 | 0.9 | 4.3 | 0.00 | 0.00 | 0.00 | 74 | 1010.4 |
| 20260505054531 | 57 | 319 | 0.9 | 2.6 | 0.00 | 0.00 | 0.00 | 74 | 1010.4 |
| 20260505054034 | 57 | 323 | 0.9 | 2.6 | 0.00 | 0.00 | 0.00 | 74 | 1010.5 |
| 20260505053530 | 57 | 79 | 0.0 | 3.5 | 0.00 | 0.00 | 0.00 | 74 | 1010.4 |
| 20260505053030 | 57 | 95 | 0.9 | 3.5 | 0.00 | 0.00 | 0.00 | 73 | 1010.5 |
| 20260505052529 | 57 | 148 | 0.9 | 4.3 | 0.00 | 0.00 | 0.00 | 73 | 1010.4 |
| 20260505052030 | 57 | 208 | 0.9 | 3.5 | 0.00 | 0.00 | 0.00 | 73 | 1010.4 |
| 20260505051531 | 57 | 217 | 1.7 | 4.3 | 0.00 | 0.00 | 0.00 | 72 | 1010.5 |
| 20260505051030 | 57 | 176 | 0.9 | 4.3 | 0.00 | 0.00 | 0.00 | 72 | 1010.6 |
| 20260505050527 | 57 | 77 | 0.9 | 3.5 | 0.00 | 0.00 | 0.00 | 71 | 1010.5 |
| 20260505041519 | 59 | 141 | 0.9 | 7.0 | 0.00 | 0.00 | 0.00 | 67 | 1010.6 |
| 20260505041019 | 59 | 355 | 0.9 | 5.2 | 0.00 | 0.00 | 0.00 | 66 | 1010.7 |
| 20260505040518 | 59 | 89 | 0.9 | 5.2 | 0.00 | 0.00 | 0.00 | 66 | 1010.6 |
| 20260505040017 | 59 | 134 | 1.7 | 4.3 | 0.00 | 0.00 | 0.00 | 66 | 1010.7 |
| 20260505035516 | 59 | 107 | 0.9 | 7.0 | 0.00 | 0.00 | 0.00 | 66 | 1010.7 |
| 20260505035016 | 59 | 261 | 1.7 | 7.0 | 0.00 | 0.00 | 0.00 | 66 | 1010.6 |
| 20260505034519 | 59 | 92 | 1.7 | 6.1 | 0.00 | 0.00 | 0.00 | 66 | 1010.6 |
| 20260505034018 | 59 | 233 | 0.9 | 6.1 | 0.00 | 0.00 | 0.00 | 66 | 1010.6 |
| 20260505033520 | 59 | 355 | 1.7 | 6.1 | 0.00 | 0.00 | 0.00 | 66 | 1010.6 |
| 20260505033028 | 59 | 62 | 1.7 | 7.0 | 0.00 | 0.00 | 0.00 | 67 | 1010.7 |
| 20260505032516 | 59 | 82 | 1.7 | 7.0 | 0.00 | 0.00 | 0.00 | 67 | 1010.7 |
| 20260505032017 | 59 | 75 | 0.9 | 3.5 | 0.00 | 0.00 | 0.00 | 67 | 1010.8 |
| 20260505031516 | 59 | 75 | 1.7 | 3.5 | 0.00 | 0.00 | 0.00 | 66 | 1010.8 |
| 20260505031015 | 59 | 79 | 0.9 | 4.3 | 0.00 | 0.00 | 0.00 | 65 | 1010.8 |
| 20260505030515 | 59 | 80 | 0.9 | 4.3 | 0.00 | 0.00 | 0.00 | 65 | 1010.8 |
| 20260505030015 | 59 | 76 | 0.9 | 3.5 | 0.00 | 0.00 | 0.00 | 64 | 1010.9 |
| 20260505025519 | 60 | 76 | 0.9 | 4.3 | 0.00 | 0.00 | 0.00 | 64 | 1010.8 |
| 20260505025014 | 60 | 77 | 0.9 | 4.3 | 0.00 | 0.00 | 0.00 | 64 | 1010.9 |
| 20260505024533 | 60 | 74 | 0.9 | 4.3 | 0.00 | 0.00 | 0.00 | 63 | 1010.9 |
| 20260505024017 | 60 | 72 | 1.7 | 7.0 | 0.00 | 0.00 | 0.00 | 63 | 1010.9 |
| 20260505023516 | 60 | 71 | 1.7 | 7.0 | 0.00 | 0.00 | 0.00 | 63 | 1010.9 |
| 20260505023014 | 60 | 60 | 0.9 | 4.3 | 0.00 | 0.00 | 0.00 | 62 | 1010.9 |
| 20260505022514 | 60 | 54 | 1.7 | 5.2 | 0.00 | 0.00 | 0.00 | 63 | 1010.9 |
| 20260505022014 | 60 | 70 | 1.7 | 7.0 | 0.00 | 0.00 | 0.00 | 62 | 1011.0 |
| 20260505021528 | 60 | 122 | 0.9 | 3.5 | 0.00 | 0.00 | 0.00 | 62 | 1011.0 |
| 20260505021013 | 60 | 148 | 1.7 | 3.5 | 0.00 | 0.00 | 0.00 | 62 | 1011.0 |
| 20260505020513 | 60 | 97 | 0.9 | 3.5 | 0.00 | 0.00 | 0.00 | 62 | 1011.0 |
| 20260505020013 | 60 | 101 | 0.0 | 3.5 | 0.00 | 0.00 | 0.00 | 62 | 1010.9 |
| 20260505015517 | 61 | 101 | 0.9 | 3.5 | 0.00 | 0.00 | 0.00 | 61 | 1010.9 |
| 20260505015013 | 61 | 102 | 0.9 | 5.2 | 0.00 | 0.00 | 0.00 | 61 | 1011.0 |
| 20260505014513 | 61 | 99 | 0.9 | 5.2 | 0.00 | 0.00 | 0.00 | 61 | 1010.9 |
| 20260505014012 | 61 | 99 | 0.9 | 3.5 | 0.00 | 0.00 | 0.00 | 60 | 1010.8 |
| 20260505013511 | 61 | 97 | 1.7 | 3.5 | 0.00 | 0.00 | 0.00 | 60 | 1010.8 |
| 20260505013012 | 61 | 108 | 0.0 | 2.6 | 0.00 | 0.00 | 0.00 | 60 | 1010.8 |
| 20260505012514 | 62 | 107 | 0.9 | 3.5 | 0.00 | 0.00 | 0.00 | 61 | 1010.8 |
| 20260505012015 | 62 | 111 | 0.0 | 3.5 | 0.00 | 0.00 | 0.00 | 59 | 1010.8 |
| 20260505011512 | 62 | 130 | 0.0 | 4.3 | 0.00 | 0.00 | 0.00 | 59 | 1010.8 |
| 20260505011011 | 62 | 138 | 0.9 | 4.3 | 0.00 | 0.00 | 0.00 | 59 | 1010.7 |
| 20260505010511 | 62 | 168 | 0.0 | 2.6 | 0.00 | 0.00 | 0.00 | 59 | 1010.6 |
| 20260505010011 | 62 | 271 | 0.0 | 3.5 | 0.00 | 0.00 | 0.00 | 59 | 1010.5 |
| 20260505005511 | 62 | 270 | 0.9 | 4.3 | 0.00 | 0.00 | 0.00 | 59 | 1010.4 |
| 20260505005011 | 62 | 331 | 0.9 | 4.3 | 0.00 | 0.00 | 0.00 | 59 | 1010.4 |
| 20260505004521 | 62 | 149 | 0.9 | 3.5 | 0.00 | 0.00 | 0.00 | 59 | 1010.4 |
| 20260505004010 | 63 | 208 | 0.9 | 7.0 | 0.00 | 0.00 | 0.00 | 59 | 1010.5 |
| 20260505003510 | 63 | 213 | 1.7 | 7.0 | 0.00 | 0.00 | 0.00 | 59 | 1010.5 |
| 20260505003010 | 63 | 141 | 0.0 | 4.3 | 0.00 | 0.00 | 0.00 | 59 | 1010.4 |
| 20260505002510 | 63 | 202 | 0.9 | 4.3 | 0.00 | 0.00 | 0.00 | 58 | 1010.3 |
| 20260505002010 | 63 | 242 | 0.0 | 4.3 | 0.00 | 0.00 | 0.00 | 58 | 1010.2 |
| 20260505001510 | 64 | 236 | 1.7 | 3.5 | 0.00 | 0.00 | 0.00 | 58 | 1010.2 |
| 20260505001009 | 64 | 237 | 0.9 | 6.1 | 0.00 | 0.00 | 0.00 | 57 | 1010.2 |
| 20260505000511 | 64 | 225 | 2.6 | 6.1 | 0.00 | 0.00 | 0.00 | 57 | 1010.2 |
| 20260505000011 | 64 | 35 | 0.9 | 9.6 | 0.00 | 0.00 | 0.00 | 57 | 1010.1 |
| 20260504235508 | 64 | 206 | 1.7 | 9.6 | 0.00 | 0.00 | 0.00 | 57 | 1010.0 |
| 20260504235010 | 65 | 265 | 0.9 | 4.3 | 0.00 | 0.00 | 0.00 | 56 | 1010.0 |
| 20260504234507 | 65 | 294 | 0.0 | 3.5 | 0.00 | 0.00 | 0.00 | 57 | 1010.0 |
| 20260504234010 | 65 | 241 | 0.0 | 7.0 | 0.00 | 0.00 | 0.00 | 56 | 1009.9 |
| 20260504233507 | 65 | 242 | 1.7 | 7.8 | 0.00 | 0.00 | 0.00 | 56 | 1009.7 |
| 20260504233007 | 66 | 190 | 2.6 | 8.7 | 0.00 | 0.00 | 0.00 | 56 | 1009.7 |
| 20260504232507 | 66 | 321 | 0.9 | 7.0 | 0.00 | 0.00 | 0.00 | 55 | 1009.7 |
| 20260504232006 | 66 | 223 | 0.9 | 7.0 | 0.00 | 0.00 | 0.00 | 55 | 1009.6 |
| 20260504231506 | 66 | 187 | 1.7 | 7.0 | 0.00 | 0.00 | 0.00 | 55 | 1009.5 |
| 20260504231006 | 66 | 188 | 2.6 | 9.6 | 0.00 | 0.00 | 0.00 | 54 | 1009.4 |
| 20260504230506 | 67 | 236 | 2.6 | 9.6 | 0.00 | 0.00 | 0.00 | 54 | 1009.5 |
| 20260504230006 | 67 | 157 | 0.9 | 4.3 | 0.00 | 0.00 | 0.00 | 54 | 1009.5 |
| 20260504225508 | 67 | 132 | 1.7 | 7.0 | 0.00 | 0.00 | 0.00 | 53 | 1009.4 |
| 20260504225005 | 68 | 319 | 1.7 | 8.7 | 0.00 | 0.00 | 0.00 | 53 | 1009.5 |
| 20260504224508 | 68 | 150 | 1.7 | 8.7 | 0.00 | 0.00 | 0.00 | 52 | 1009.4 |
| 20260504224005 | 69 | 282 | 1.7 | 6.1 | 0.00 | 0.00 | 0.00 | 52 | 1009.4 |
| 20260504223504 | 69 | 267 | 0.9 | 8.7 | 0.00 | 0.00 | 0.00 | 52 | 1009.4 |
| 20260504223004 | 69 | 296 | 0.9 | 8.7 | 0.00 | 0.00 | 0.00 | 51 | 1009.4 |
| 20260504222504 | 69 | 288 | 1.7 | 7.8 | 0.00 | 0.00 | 0.00 | 51 | 1009.6 |
| 20260504222007 | 69 | 304 | 2.6 | 8.7 | 0.00 | 0.00 | 0.00 | 51 | 1009.6 |
| 20260504221503 | 69 | 253 | 2.6 | 8.7 | 0.00 | 0.00 | 0.00 | 50 | 1009.6 |
| 20260504221004 | 69 | 82 | 0.9 | 7.8 | 0.00 | 0.00 | 0.00 | 51 | 1009.6 |
| 20260504220505 | 70 | 110 | 2.6 | 7.0 | 0.00 | 0.00 | 0.00 | 50 | 1009.5 |
| 20260504220003 | 70 | 178 | 2.6 | 9.6 | 0.00 | 0.00 | 0.00 | 50 | 1009.6 |
| 20260504215503 | 70 | 300 | 3.5 | 9.6 | 0.00 | 0.00 | 0.00 | 50 | 1009.6 |
| 20260504215003 | 70 | 153 | 0.0 | 9.6 | 0.00 | 0.00 | 0.00 | 50 | 1009.6 |
| 20260504214502 | 70 | 162 | 3.5 | 10.4 | 0.00 | 0.00 | 0.00 | 49 | 1009.6 |
| 20260504214001 | 70 | 290 | 1.7 | 7.8 | 0.00 | 0.00 | 0.00 | 49 | 1009.8 |
| 20260504213601 | 70 | 177 | 2.6 | 7.8 | 0.00 | 0.00 | 0.00 | 49 | 1009.7 |
| 20260504213128 | 70 | 248 | 1.7 | 8.7 | 0.00 | 0.00 | 0.00 | 49 | 1009.8 |
| 20260504212602 | 70 | 261 | 2.6 | 8.7 | 0.00 | 0.00 | 0.00 | 49 | 1009.8 |
| 20260504212100 | 70 | 260 | 2.6 | 8.7 | 0.00 | 0.00 | 0.00 | 49 | 1009.8 |
| 20260504211559 | 69 | 236 | 2.6 | 8.7 | 0.00 | 0.00 | 0.00 | 51 | 1009.7 |
| 20260504211059 | 68 | 268 | 1.7 | 8.7 | 0.00 | 0.00 | 0.00 | 50 | 1009.9 |